Time,TemperatureF,DewpointF,PressureIn,WindDirection,WindDirectionDegrees,WindSpeedMPH,WindSpeedGustMPH,Humidity,HourlyPrecipIn,Conditions,Clouds,dailyrainin,SoftwareType,DateUTC
2013-05-23 00:02:00,71.2,67.0,29.70,SW,219,3.0,7.0,87,0.00,,,0.28,weatherlink.com 1.10,2013-05-23 04:02:00,
2013-05-23 01:17:00,71.0,68.0,29.73,SW,221,0.0,4.0,91,0.04,,,0.04,weatherlink.com 1.10,2013-05-23 05:17:00,
2013-05-23 01:32:00,70.2,69.0,29.72,SW,221,0.0,4.0,94,0.12,,,0.12,weatherlink.com 1.10,2013-05-23 05:32:00,
2013-05-23 01:47:00,69.6,68.0,29.71,NNW,343,0.0,1.0,95,0.24,,,0.24,weatherlink.com 1.10,2013-05-23 05:47:00,
2013-05-23 02:02:00,69.0,68.0,29.71,NNW,332,0.0,0.0,96,0.24,,,0.24,weatherlink.com 1.10,2013-05-23 06:02:00,
2013-05-23 02:17:00,68.4,67.0,29.70,NNW,332,0.0,0.0,96,0.20,,,0.24,weatherlink.com 1.10,2013-05-23 06:17:00,
2013-05-23 02:32:00,68.5,68.0,29.70,WSW,241,0.0,1.0,98,0.10,,,0.24,weatherlink.com 1.10,2013-05-23 06:32:00,
2013-05-23 02:47:00,68.9,68.0,29.69,SW,233,0.0,3.0,98,0.00,,,0.24,weatherlink.com 1.10,2013-05-23 06:47:00,
2013-05-23 03:02:00,69.2,69.0,29.68,SW,219,0.0,1.0,98,0.00,,,0.24,weatherlink.com 1.10,2013-05-23 07:02:00,
2013-05-23 03:17:00,69.4,69.0,29.68,West,266,0.0,2.0,98,0.00,,,0.24,weatherlink.com 1.10,2013-05-23 07:17:00,
2013-05-23 03:32:00,69.4,69.0,29.70,SW,230,2.0,2.0,98,0.00,,,0.24,weatherlink.com 1.10,2013-05-23 07:32:00,
2013-05-23 03:47:00,69.7,69.0,29.70,WSW,258,0.0,3.0,97,0.00,,,0.24,weatherlink.com 1.10,2013-05-23 07:47:00,
2013-05-23 04:02:00,69.8,69.0,29.69,South,178,2.0,8.0,97,0.00,,,0.24,weatherlink.com 1.10,2013-05-23 08:02:00,
2013-05-23 04:17:00,69.9,69.0,29.69,SW,221,1.0,6.0,96,0.00,,,0.24,weatherlink.com 1.10,2013-05-23 08:17:00,
2013-05-23 04:32:00,69.8,69.0,29.69,SW,219,2.0,5.0,96,0.00,,,0.24,weatherlink.com 1.10,2013-05-23 08:32:00,
2013-05-23 04:47:00,69.8,68.0,29.69,WSW,241,1.0,9.0,95,0.00,,,0.24,weatherlink.com 1.10,2013-05-23 08:47:00,
2013-05-23 05:02:00,69.7,68.0,29.69,SW,215,3.0,4.0,94,0.00,,,0.24,weatherlink.com 1.10,2013-05-23 09:02:00,
2013-05-23 05:17:00,69.5,68.0,29.70,SW,227,0.0,5.0,93,0.00,,,0.24,weatherlink.com 1.10,2013-05-23 09:17:00,
2013-05-23 05:32:00,69.6,67.0,29.70,SW,217,0.0,9.0,92,0.00,,,0.24,weatherlink.com 1.10,2013-05-23 09:32:00,
2013-05-23 05:47:00,69.6,67.0,29.70,SW,215,1.0,7.0,91,0.00,,,0.24,weatherlink.com 1.10,2013-05-23 09:47:00,
2013-05-23 06:02:00,69.6,66.0,29.71,SSW,202,2.0,7.0,89,0.00,,,0.24,weatherlink.com 1.10,2013-05-23 10:02:00,
2013-05-23 06:17:00,69.6,66.0,29.71,SW,219,1.0,7.0,89,0.00,,,0.24,weatherlink.com 1.10,2013-05-23 10:17:00,
2013-05-23 06:32:00,69.7,66.0,29.71,SSW,206,1.0,9.0,89,0.00,,,0.24,weatherlink.com 1.10,2013-05-23 10:32:00,
2013-05-23 06:47:00,70.1,66.0,29.71,SSW,200,4.0,7.0,87,0.00,,,0.24,weatherlink.com 1.10,2013-05-23 10:47:00,
2013-05-23 07:02:00,70.2,66.0,29.72,SSW,201,4.0,8.0,87,0.00,,,0.24,weatherlink.com 1.10,2013-05-23 11:02:00,
2013-05-23 07:17:00,70.3,66.0,29.73,SW,214,3.0,12.0,86,0.00,,,0.24,weatherlink.com 1.10,2013-05-23 11:17:00,
2013-05-23 07:32:00,70.5,66.0,29.72,SSW,202,4.0,5.0,86,0.00,,,0.24,weatherlink.com 1.10,2013-05-23 11:32:00,
2013-05-23 07:47:00,70.6,66.0,29.73,South,178,3.0,11.0,84,0.00,,,0.24,weatherlink.com 1.10,2013-05-23 11:47:00,
2013-05-23 08:02:00,70.7,66.0,29.73,SW,221,2.0,9.0,84,0.00,,,0.24,weatherlink.com 1.10,2013-05-23 12:02:00,
2013-05-23 08:17:00,70.7,65.0,29.73,West,262,1.0,8.0,83,0.00,,,0.24,weatherlink.com 1.10,2013-05-23 12:17:00,
2013-05-23 08:32:00,70.6,65.0,29.73,SSW,200,4.0,7.0,83,0.00,,,0.24,weatherlink.com 1.10,2013-05-23 12:32:00,
2013-05-23 08:47:00,70.4,65.0,29.74,SSW,210,6.0,11.0,82,0.00,,,0.24,weatherlink.com 1.10,2013-05-23 12:47:00,
2013-05-23 09:02:00,69.9,65.0,29.73,South,169,2.0,10.0,84,0.00,,,0.24,weatherlink.com 1.10,2013-05-23 13:02:00,
2013-05-23 09:17:00,69.2,65.0,29.73,SW,218,1.0,8.0,86,0.00,,,0.24,weatherlink.com 1.10,2013-05-23 13:17:00,
2013-05-23 09:32:00,69.3,65.0,29.74,SSW,196,8.0,11.0,85,0.00,,,0.24,weatherlink.com 1.10,2013-05-23 13:32:00,
2013-05-23 09:47:00,69.5,65.0,29.73,SW,218,1.0,6.0,85,0.00,,,0.24,weatherlink.com 1.10,2013-05-23 13:47:00,
2013-05-23 10:02:00,70.1,65.0,29.73,WSW,237,2.0,9.0,84,0.00,,,0.24,weatherlink.com 1.10,2013-05-23 14:02:00,
2013-05-23 10:17:00,71.2,66.0,29.73,SW,218,4.0,9.0,82,0.00,,,0.24,weatherlink.com 1.10,2013-05-23 14:17:00,
2013-05-23 10:32:00,72.9,66.0,29.72,SW,218,2.0,15.0,79,0.00,,,0.24,weatherlink.com 1.10,2013-05-23 14:32:00,
2013-05-23 10:47:00,74.3,67.0,29.73,SW,219,3.0,12.0,77,0.00,,,0.24,weatherlink.com 1.10,2013-05-23 14:47:00,
2013-05-23 11:03:00,75.1,67.0,29.72,SW,215,4.0,13.0,75,0.00,,,0.24,weatherlink.com 1.10,2013-05-23 15:03:00,
2013-05-23 11:18:00,75.3,67.0,29.72,South,172,3.0,9.0,75,0.00,,,0.24,weatherlink.com 1.10,2013-05-23 15:18:00,
2013-05-23 11:33:00,75.0,67.0,29.73,SW,217,1.0,7.0,77,0.00,,,0.24,weatherlink.com 1.10,2013-05-23 15:33:00,
2013-05-23 11:48:00,74.0,68.0,29.73,SW,226,2.0,11.0,80,0.00,,,0.24,weatherlink.com 1.10,2013-05-23 15:48:00,
2013-05-23 12:03:00,72.7,68.0,29.73,SSW,213,0.0,7.0,85,0.01,,,0.25,weatherlink.com 1.10,2013-05-23 16:03:00,
2013-05-23 12:18:00,72.3,68.0,29.73,SW,214,0.0,9.0,86,0.01,,,0.25,weatherlink.com 1.10,2013-05-23 16:18:00,
2013-05-23 12:33:00,73.1,69.0,29.72,SW,223,0.0,3.0,86,0.01,,,0.25,weatherlink.com 1.10,2013-05-23 16:33:00,
2013-05-23 12:48:00,74.0,69.0,29.72,SW,218,3.0,5.0,83,0.01,,,0.25,weatherlink.com 1.10,2013-05-23 16:48:00,
2013-05-23 13:03:00,74.8,67.0,29.71,South,191,2.0,10.0,76,0.00,,,0.25,weatherlink.com 1.10,2013-05-23 17:03:00,
2013-05-23 13:18:00,76.8,67.0,29.70,South,176,7.0,12.0,71,0.00,,,0.25,weatherlink.com 1.10,2013-05-23 17:18:00,
2013-05-23 13:33:00,78.0,67.0,29.71,South,188,11.0,20.0,68,0.00,,,0.25,weatherlink.com 1.10,2013-05-23 17:33:00,
2013-05-23 13:48:00,77.1,65.0,29.70,South,184,3.0,10.0,67,0.00,,,0.25,weatherlink.com 1.10,2013-05-23 17:48:00,
2013-05-23 14:03:00,77.3,67.0,29.69,SW,227,3.0,13.0,71,0.00,,,0.25,weatherlink.com 1.10,2013-05-23 18:03:00,
2013-05-23 14:18:00,77.7,65.0,29.68,SW,218,2.0,11.0,66,0.00,,,0.25,weatherlink.com 1.10,2013-05-23 18:18:00,
2013-05-23 14:33:00,78.0,67.0,29.68,WNW,284,5.0,12.0,68,0.00,,,0.25,weatherlink.com 1.10,2013-05-23 18:33:00,
2013-05-23 14:48:00,77.3,66.0,29.67,SW,236,7.0,14.0,68,0.00,,,0.25,weatherlink.com 1.10,2013-05-23 18:48:00,
2013-05-23 15:03:00,78.5,68.0,29.67,WNW,290,4.0,10.0,69,0.00,,,0.25,weatherlink.com 1.10,2013-05-23 19:03:00,
2013-05-23 15:18:00,77.3,67.0,29.67,WSW,239,2.0,12.0,70,0.00,,,0.25,weatherlink.com 1.10,2013-05-23 19:18:00,
2013-05-23 15:33:00,77.3,67.0,29.67,South,178,2.0,15.0,70,0.00,,,0.25,weatherlink.com 1.10,2013-05-23 19:33:00,
2013-05-23 15:48:00,77.2,66.0,29.66,WSW,246,13.0,18.0,69,0.00,,,0.25,weatherlink.com 1.10,2013-05-23 19:48:00,
2013-05-23 16:03:00,77.5,67.0,29.66,SW,214,4.0,15.0,69,0.00,,,0.25,weatherlink.com 1.10,2013-05-23 20:03:00,
2013-05-23 16:18:00,78.0,67.0,29.66,SW,217,4.0,17.0,69,0.00,,,0.25,weatherlink.com 1.10,2013-05-23 20:18:00,
2013-05-23 16:33:00,77.4,67.0,29.65,WSW,248,6.0,10.0,70,0.00,,,0.25,weatherlink.com 1.10,2013-05-23 20:33:00,
2013-05-23 16:48:00,77.2,67.0,29.65,SSW,212,4.0,10.0,70,0.00,,,0.25,weatherlink.com 1.10,2013-05-23 20:48:00,
2013-05-23 17:03:00,75.5,64.0,29.66,North,7,1.0,6.0,67,0.00,,,0.25,weatherlink.com 1.10,2013-05-23 21:03:00,
2013-05-23 17:18:00,71.1,62.0,29.66,NE,44,3.0,4.0,74,0.00,,,0.25,weatherlink.com 1.10,2013-05-23 21:18:00,
2013-05-23 17:33:00,69.0,63.0,29.67,NE,34,2.0,4.0,80,0.00,,,0.25,weatherlink.com 1.10,2013-05-23 21:33:00,
2013-05-23 17:48:00,68.4,63.0,29.67,SW,236,1.0,2.0,84,0.00,,,0.25,weatherlink.com 1.10,2013-05-23 21:48:00,
2013-05-23 18:03:00,68.2,64.0,29.67,NW,315,0.0,2.0,85,0.00,,,0.25,weatherlink.com 1.10,2013-05-23 22:03:00,
2013-05-23 18:18:00,68.5,64.0,29.67,NW,319,0.0,2.0,85,0.00,,,0.25,weatherlink.com 1.10,2013-05-23 22:18:00,
2013-05-23 18:33:00,71.3,66.0,29.67,South,180,6.0,10.0,84,0.00,,,0.25,weatherlink.com 1.10,2013-05-23 22:33:00,
2013-05-23 18:48:00,72.2,66.0,29.67,South,170,2.0,8.0,82,0.00,,,0.25,weatherlink.com 1.10,2013-05-23 22:48:00,
2013-05-23 19:03:00,72.1,67.0,29.67,ESE,121,6.0,10.0,83,0.00,,,0.25,weatherlink.com 1.10,2013-05-23 23:03:00,
2013-05-23 19:18:00,71.8,66.0,29.68,SE,141,3.0,14.0,83,0.00,,,0.25,weatherlink.com 1.10,2013-05-23 23:18:00,
2013-05-23 19:33:00,71.6,66.0,29.68,SSW,193,5.0,12.0,83,0.00,,,0.25,weatherlink.com 1.10,2013-05-23 23:33:00,
2013-05-23 19:48:00,71.2,66.0,29.68,SW,217,7.0,12.0,84,0.00,,,0.25,weatherlink.com 1.10,2013-05-23 23:48:00,
2013-05-23 20:03:00,70.7,66.0,29.67,SSW,208,1.0,11.0,86,0.00,,,0.25,weatherlink.com 1.10,2013-05-24 00:03:00,
2013-05-23 20:18:00,70.4,66.0,29.68,West,269,4.0,8.0,87,0.03,,,0.28,weatherlink.com 1.10,2013-05-24 00:18:00,
2013-05-23 20:33:00,68.2,66.0,29.68,NW,304,5.0,13.0,93,0.28,,,0.53,weatherlink.com 1.10,2013-05-24 00:33:00,
2013-05-23 20:48:00,65.6,64.0,29.69,SSW,212,2.0,8.0,94,0.31,,,0.56,weatherlink.com 1.10,2013-05-24 00:48:00,
2013-05-23 21:03:00,63.9,62.0,29.70,West,262,0.0,6.0,94,0.35,,,0.60,weatherlink.com 1.10,2013-05-24 01:03:00,
2013-05-23 21:18:00,63.4,62.0,29.71,West,268,0.0,2.0,95,0.34,,,0.68,weatherlink.com 1.10,2013-05-24 01:18:00,
2013-05-23 21:33:00,63.2,62.0,29.70,WSW,257,0.0,2.0,96,0.23,,,0.76,weatherlink.com 1.10,2013-05-24 01:33:00,
2013-05-23 21:48:00,62.7,62.0,29.71,SSW,212,0.0,2.0,96,0.26,,,0.82,weatherlink.com 1.10,2013-05-24 01:48:00,
2013-05-23 22:03:00,62.4,61.0,29.71,SSW,207,0.0,0.0,96,0.21,,,0.82,weatherlink.com 1.10,2013-05-24 02:03:00,
2013-05-23 22:18:00,62.4,61.0,29.71,North,352,0.0,0.0,96,0.13,,,0.82,weatherlink.com 1.10,2013-05-24 02:18:00,
2013-05-23 22:33:00,62.3,62.0,29.71,SW,219,0.0,1.0,97,0.06,,,0.82,weatherlink.com 1.10,2013-05-24 02:33:00,
2013-05-23 22:48:00,62.4,62.0,29.70,SSW,199,0.0,3.0,97,0.00,,,0.82,weatherlink.com 1.10,2013-05-24 02:48:00,
2013-05-23 23:03:00,62.4,62.0,29.70,SSW,207,0.0,0.0,97,0.00,,,0.82,weatherlink.com 1.10,2013-05-24 03:03:00,
2013-05-23 23:18:00,62.3,62.0,29.69,SSW,209,0.0,1.0,97,0.00,,,0.82,weatherlink.com 1.10,2013-05-24 03:18:00,
2013-05-23 23:33:00,62.0,62.0,29.70,SW,215,0.0,1.0,98,0.00,,,0.82,weatherlink.com 1.10,2013-05-24 03:33:00,
2013-05-23 23:48:00,61.9,61.0,29.69,SW,215,0.0,0.0,98,0.00,,,0.82,weatherlink.com 1.10,2013-05-24 03:48:00,